sat.trackr.live / text

‹ back to catalog

STARLINK-30280

NORAD 57643 · 2023-122M

PAYLOAD ACTIVE UNKNOWN

§ Identity

Operator
Country
US
Launch date
2023-08-17
Launch site
AFETR
Launch vehicle
Mass (kg)
RCS (m²)

Purposes: comms

External: N2YO · Heavens-Above · Gunter

§ Orbital elements

Epoch: 2026-05-25T00:37:08.937696Z

Period
94.27 min
Inclination
43.0052°
Eccentricity
0.0001567
Mean motion
15.27578343 rev/d
Perigee alt
482.0 km
Apogee alt
484.1 km
Semi-major
6,861.2 km
B*
1.2708e-5
RAAN
21.2166°
Arg perigee
269.5096°
Mean anomaly
90.5576°
Rev number
15,388

§ Raw data

STARLINK-302801 57643U 23122M   26145.02579789  .00000087  00000+0  12708-4 0  99962 57643  43.0052  21.2166 0001567 269.5096  90.5576 15.27578343153887

JSON: /api/v1/satellites/57643 · /tle

For live sub-satellite position, see the globe view (requires WebGL).

§ Visibility from observer

Set your observer location to see the next 7 days of passes ≥ 10°. The values pass through the URL so the page stays shareable.

No JS? Fill the form by hand. The geolocation button needs JavaScript.